Weather History for KLRJ - March, 2014

Change the Weather History Date:

Saturday, March 8, 2014

  Actual Average Record
Temperature  
Mean Temperature 22 °F -  
Max Temperature 33 °F 42 °F - (-1)
Min Temperature 10 °F 18 °F - (-1)
Degree Days  
Heating Degree Days 44    
Moisture  
Dew Point 15 °F    
Average Humidity 76    
Maximum Humidity 93    
Minimum Humidity 52    
Precipitation  
Precipitation 0.00 in - - ()
Sea Level Pressure  
Sea Level Pressure 30.29 in    
Wind  
Wind Speed 6 mph (NNE)    
Max Wind Speed 14 mph    
Max Gust Speed 17 mph    
Visibility 10 miles    
Events      
Averages and records for this station are not official NWS values.
T = Trace of Precipitation, MM = Missing Value Source: NWS Daily Summary

Daily Weather History Graph

Daily Weather History Graph

Search for Another Location

Airport or City:

Trip Planner

Search our weather history database for the weather conditions in past years. The results will help you decide how hot, cold, wet, or windy it might be!

Date:

Astronomy

Mar. 08, 2014 Rise Set
Actual Time 6:48 AM CST 6:22 PM CST
Civil Twilight 6:20 AM CST 6:51 PM CST
Nautical Twilight 5:47 AM CST 7:23 PM CST
Astronomical Twilight 5:14 AM CST 7:56 PM CST
Moon 11:22 AM CST (3/8) 1:30 AM CST (3/8)
Length of Visible Light 12h 30m
Length of Day
11h 34m
First Quarter, 52% of the Moon is Illuminated
Mar 8
First Quarter
Mar 16
Full
Mar 23
Last Quarter
Mar 30
New
Apr 7
First Quarter

Hourly Weather History & Observations

Time (CST) Temp. Windchill Dew Point Humidity Pressure Visibility Wind Dir Wind Speed Gust Speed Precip Events Conditions
12:15 AM 19.4 °F 9.5 °F 15.8 °F 86% 30.25 in 10.0 mi North 8.1 mph - N/A   Mostly Cloudy
12:35 AM 19.4 °F 7.2 °F 14.0 °F 80% 30.25 in 10.0 mi North 11.5 mph - N/A   Partly Cloudy
12:55 AM 19.4 °F 7.9 °F 14.0 °F 80% 30.25 in 10.0 mi North 10.4 mph - N/A   Clear
1:15 AM 19.4 °F 6.6 °F 14.0 °F 80% 30.25 in 10.0 mi North 12.7 mph - N/A   Clear
1:35 AM 17.6 °F 3.7 °F 14.0 °F 86% 30.26 in 10.0 mi North 13.8 mph - N/A   Clear
1:55 AM 17.6 °F 5.0 °F 14.0 °F 86% 30.26 in 10.0 mi North 11.5 mph - N/A   Clear
2:15 AM 17.6 °F 6.4 °F 14.0 °F 86% 30.26 in 10.0 mi North 9.2 mph - N/A   Clear
2:35 AM 15.8 °F 2.7 °F 12.2 °F 86% 30.26 in 10.0 mi North 11.5 mph - N/A   Clear
2:55 AM 15.8 °F 4.2 °F 12.2 °F 86% 30.26 in 10.0 mi North 9.2 mph - N/A   Clear
3:15 AM 15.8 °F 3.4 °F 12.2 °F 86% 30.26 in 10.0 mi North 10.4 mph - N/A   Clear
3:35 AM 14.0 °F 8.2 °F 12.2 °F 93% 30.26 in 10.0 mi NNE 3.5 mph - N/A   Partly Cloudy
3:55 AM 14.0 °F 5.1 °F 10.4 °F 86% 30.27 in 10.0 mi North 5.8 mph - N/A   Partly Cloudy
4:15 AM 14.0 °F 3.9 °F 10.4 °F 86% 30.28 in 10.0 mi North 6.9 mph - N/A   Clear
4:30 AM 14.0 °F 5.1 °F 10.4 °F 86% 30.29 in 10.0 mi North 5.8 mph - N/A   Clear
4:55 AM 14.0 °F 5.1 °F 10.4 °F 86% 30.29 in 10.0 mi NNE 5.8 mph - N/A   Clear
5:15 AM 12.2 °F 2.9 °F 10.4 °F 92% 30.30 in 10.0 mi North 5.8 mph - N/A   Clear
5:35 AM 12.2 °F - 10.4 °F 92% 30.30 in 10.0 mi Calm Calm - N/A   Clear
5:55 AM 12.2 °F - 8.6 °F 85% 30.31 in 10.0 mi Calm Calm - N/A   Clear
6:15 AM 12.2 °F - 8.6 °F 85% 30.31 in 10.0 mi Calm Calm - N/A   Clear
6:35 AM 12.2 °F - 8.6 °F 85% 30.32 in 10.0 mi Calm Calm - N/A   Clear
6:55 AM 10.4 °F - 8.6 °F 92% 30.33 in 10.0 mi Calm Calm - N/A   Clear
7:15 AM 10.4 °F - 8.6 °F 92% 30.33 in 10.0 mi Calm Calm - N/A   Clear
7:35 AM 12.2 °F - 8.6 °F 85% 30.33 in 10.0 mi Calm Calm - N/A   Clear
7:55 AM 12.2 °F 4.3 °F 8.6 °F 85% 30.34 in 10.0 mi North 4.6 mph - N/A   Clear
8:15 AM 14.0 °F 3.9 °F 8.6 °F 79% 30.34 in 10.0 mi North 6.9 mph - N/A   Clear
8:35 AM 14.0 °F 6.5 °F 10.4 °F 86% 30.34 in 10.0 mi North 4.6 mph - N/A   Clear
8:55 AM 15.8 °F 7.2 °F 10.4 °F 79% 30.34 in 10.0 mi Variable 5.8 mph - N/A   Clear
9:10 AM 15.8 °F 10.2 °F 10.4 °F 79% 30.34 in 10.0 mi North 3.5 mph 11.5 mph N/A   Clear
9:35 AM 17.6 °F 8.2 °F 12.2 °F 79% 30.36 in 10.0 mi Variable 6.9 mph - N/A   Clear
9:55 AM 17.6 °F 9.3 °F 12.2 °F 79% 30.36 in 10.0 mi NNW 5.8 mph - N/A   Clear
10:15 AM 19.4 °F 14.3 °F 12.2 °F 74% 30.36 in 10.0 mi NNE 3.5 mph - N/A   Clear
10:35 AM 21.2 °F 14.9 °F 14.0 °F 74% 30.36 in 10.0 mi NNW 4.6 mph - N/A   Clear
10:55 AM 21.2 °F 16.4 °F 14.0 °F 74% 30.36 in 10.0 mi NNE 3.5 mph - N/A   Clear
11:15 AM 23.0 °F 17.0 °F 15.8 °F 74% 30.36 in 10.0 mi NNW 4.6 mph - N/A   Clear
11:35 AM 23.0 °F - 15.8 °F 74% 30.36 in 10.0 mi Calm Calm - N/A   Clear
11:55 AM 24.8 °F 19.1 °F 15.8 °F 69% 30.35 in 10.0 mi North 4.6 mph - N/A   Clear
12:15 PM 24.8 °F 17.9 °F 17.6 °F 74% 30.35 in 10.0 mi North 5.8 mph - N/A   Clear
12:35 PM 26.6 °F 20.0 °F 17.6 °F 69% 30.35 in 10.0 mi NW 5.8 mph - N/A   Clear
12:55 PM 26.6 °F 21.2 °F 17.6 °F 69% 30.34 in 10.0 mi Variable 4.6 mph - N/A   Clear
1:15 PM 28.4 °F 22.2 °F 17.6 °F 64% 30.32 in 10.0 mi Variable 5.8 mph - N/A   Clear
1:35 PM 28.4 °F 24.6 °F 17.6 °F 64% 30.31 in 10.0 mi Variable 3.5 mph - N/A   Clear
1:55 PM 28.4 °F 22.2 °F 17.6 °F 64% 30.31 in 10.0 mi NW 5.8 mph - N/A   Clear
2:15 PM 28.4 °F 23.3 °F 17.6 °F 64% 30.31 in 10.0 mi Variable 4.6 mph - N/A   Clear
2:35 PM 30.2 °F 25.4 °F 19.4 °F 64% 30.30 in 10.0 mi West 4.6 mph - N/A   Clear
2:55 PM 30.2 °F - 19.4 °F 64% 30.30 in 10.0 mi Calm Calm - N/A   Clear
3:15 PM 32.0 °F - 19.4 °F 60% 30.30 in 10.0 mi Calm Calm - N/A   Clear
3:35 PM 32.0 °F 27.5 °F 19.4 °F 60% 30.30 in 10.0 mi Variable 4.6 mph - N/A   Clear
3:55 PM 32.0 °F 28.7 °F 19.4 °F 60% 30.30 in 10.0 mi Variable 3.5 mph - N/A   Clear
4:15 PM 32.0 °F - 19.4 °F 60% 30.29 in 10.0 mi Calm Calm - N/A   Clear
4:35 PM 32.0 °F - 19.4 °F 60% 30.29 in 10.0 mi Calm Calm - N/A   Clear
4:55 PM 33.8 °F - 17.6 °F 52% 30.29 in 10.0 mi Calm Calm - N/A   Clear
5:15 PM 33.8 °F - 17.6 °F 52% 30.28 in 10.0 mi Calm Calm - N/A   Clear
5:35 PM 32.0 °F - 17.6 °F 55% 30.28 in 10.0 mi Calm Calm - N/A   Clear
5:55 PM 32.0 °F - 19.4 °F 60% 30.27 in 10.0 mi Calm Calm - N/A   Clear
6:15 PM 32.0 °F - 19.4 °F 60% 30.27 in 10.0 mi Calm Calm - N/A   Clear
6:35 PM 32.0 °F - 19.4 °F 60% 30.28 in 10.0 mi Calm Calm - N/A   Clear
6:55 PM 30.2 °F - 19.4 °F 64% 30.28 in 10.0 mi Calm Calm - N/A   Clear
7:15 PM 28.4 °F 21.2 °F 21.2 °F 74% 30.27 in 10.0 mi ESE 6.9 mph - N/A   Clear
7:35 PM 28.4 °F 21.2 °F 21.2 °F 74% 30.27 in 10.0 mi SE 6.9 mph - N/A   Clear
7:55 PM 26.6 °F 17.5 °F 21.2 °F 80% 30.26 in - SE 9.2 mph - N/A   Clear
8:15 PM 26.6 °F 18.2 °F 21.2 °F 80% 30.26 in 10.0 mi SE 8.1 mph - N/A   Clear
8:35 PM 26.6 °F 17.5 °F 21.2 °F 80% 30.25 in 10.0 mi SE 9.2 mph - N/A   Clear
8:55 PM 26.6 °F 16.8 °F 19.4 °F 74% 30.24 in 10.0 mi SE 10.4 mph 17.3 mph N/A   Clear
9:15 PM 26.6 °F 17.5 °F 19.4 °F 74% 30.24 in 10.0 mi SE 9.2 mph - N/A   Clear
9:35 PM 24.8 °F 19.1 °F 19.4 °F 80% 30.24 in 10.0 mi SSW 4.6 mph - N/A   Clear
9:55 PM 24.8 °F 16.1 °F 19.4 °F 80% 30.24 in 10.0 mi South 8.1 mph - N/A   Clear
10:15 PM 24.8 °F 16.9 °F 19.4 °F 80% 30.24 in 10.0 mi South 6.9 mph - N/A   Clear
10:35 PM 24.8 °F 16.1 °F 19.4 °F 80% 30.22 in 10.0 mi South 8.1 mph - N/A   Clear
10:55 PM 24.8 °F 16.9 °F 19.4 °F 80% 30.22 in 10.0 mi South 6.9 mph - N/A   Clear
11:15 PM 24.8 °F 17.9 °F 19.4 °F 80% 30.22 in 10.0 mi South 5.8 mph - N/A   Clear
11:35 PM 23.0 °F 15.8 °F 19.4 °F 86% 30.20 in 10.0 mi South 5.8 mph - N/A   Clear
11:55 PM 24.8 °F 16.9 °F 19.4 °F 80% 30.20 in 10.0 mi South 6.9 mph - N/A   Clear